Location: Poughquag
(41.6090°N, 73.6820°W)
Time: 08:06:18
(UTC-05:00)

Altair - Pass Details

Date: 02 December 2023
Orbit: 1501 x 1682 km, 47.2° (Epoch: 02 March)

Event Time Altitude Azimuth Distance (km) Brightness Sun altitude
Rises 15:29:55 0° 297° (WNW) 4,670 10.4 7.7°
Reaches altitude 10° 15:33:05 10° 292° (WNW) 3,672 10.0 7.3°
Maximum altitude 15:41:45 48° 222° (SW) 1,881 8.9 6.0°
Drops below altitude 10° 15:50:23 10° 151° (SSE) 3,656 9.6 4.7°
Sets 15:53:33 0° 146° (SE) 4,648 10.0 4.2°
